Whitefield, NH

8:25 PM EDT on August 25, 2016 (GMT -0400)
Mount Washington Regional

Weather History for KHIE - September, 2012

Change the Weather History Date:

Friday, September 21, 2012

  Actual Average Record
Temperature  
Mean Temperature 52 °F -  
Max Temperature 72 °F 65 °F 81 °F (1998)
Min Temperature 33 °F 38 °F 32 °F (2010)
Degree Days  
Heating Degree Days 12    
Growing Degree Days 2 (Base 50)    
Moisture  
Dew Point 39 °F    
Average Humidity 82    
Maximum Humidity 100    
Minimum Humidity 46    
Precipitation  
Precipitation 0.00 in - - ()
Sea Level Pressure  
Sea Level Pressure 30.12 in    
Wind  
Wind Speed 1 mph (WSW)    
Max Wind Speed 8 mph    
Max Gust Speed -    
Visibility 7 miles    
Events Fog , Rain    
Averages and records for this station are not official NWS values.
T = Trace of Precipitation, MM = Missing Value Source: NWS Daily Summary

Daily Weather History Graph

Daily Weather History Graph

Search for Another Location

Airport or City:

Trip Planner

Search our weather history database for the weather conditions in past years. The results will help you decide how hot, cold, wet, or windy it might be!

Date:

Astronomy

Sep. 21, 2012 Rise Set
Actual Time 6:32 AM EDT 6:44 PM EDT
Civil Twilight 6:03 AM EDT 7:13 PM EDT
Nautical Twilight 5:29 AM EDT 7:47 PM EDT
Astronomical Twilight 4:54 AM EDT 8:22 PM EDT
Moon 1:05 PM EDT (9/21) 10:28 PM EDT (9/21)
Length of Visible Light 13h 09m
Length of Day
12h 11m
Waxing Crescent, 37% of the Moon is Illuminated
Sep 21
Waxing Crescent
Sep 22
First Quarter
Sep 29
Full
Oct 8
Last Quarter
Oct 15
New

Hourly Weather History & Observations

Time (EDT) Temp. Dew Point Humidity Pressure Visibility Wind Dir Wind Speed Gust Speed Precip Events Conditions
12:52 AM 37.9 °F 35.1 °F 89% 30.16 in 10.0 mi Calm Calm - N/A   Clear
1:52 AM 37.0 °F 34.0 °F 89% 30.17 in 10.0 mi Calm Calm - N/A   Clear
2:52 AM 36.0 °F 33.1 °F 89% 30.17 in 10.0 mi Calm Calm - N/A   Clear
3:52 AM 35.1 °F 33.1 °F 92% 30.16 in 2.5 mi Calm Calm - N/A   Clear
3:54 AM 35.6 °F 33.8 °F 93% 30.14 in 1.0 mi Calm Calm - N/A   Mist
4:01 AM 35.6 °F 33.8 °F 93% 30.14 in 0.2 mi Calm Calm - N/A Fog Fog
4:10 AM 33.8 °F 32.0 °F 93% 30.14 in 3.0 mi Calm Calm - N/A   Partly Cloudy
4:52 AM 34.0 °F 32.0 °F 92% 30.16 in 3.0 mi Calm Calm - N/A   Scattered Clouds
5:04 AM 35.6 °F 32.0 °F 87% 30.14 in 10.0 mi Calm Calm - N/A   Mostly Cloudy
5:44 AM 33.8 °F 32.0 °F 93% 30.14 in 10.0 mi Calm Calm - N/A   Scattered Clouds
5:52 AM 34.0 °F 30.9 °F 89% 30.16 in 10.0 mi Calm Calm - N/A   Partly Cloudy
6:25 AM 33.8 °F 30.2 °F 87% 30.14 in 10.0 mi Calm Calm - N/A   Mostly Cloudy
6:33 AM 33.8 °F 32.0 °F 93% 30.14 in 1.5 mi Calm Calm - N/A   Mostly Cloudy
6:35 AM 33.8 °F 32.0 °F 93% 30.14 in 0.8 mi Calm Calm - N/A   Overcast
6:52 AM 34.0 °F 33.1 °F 96% 30.17 in 0.2 mi Calm Calm - N/A Fog , Rain Light Rain
7:36 AM 35.6 °F 33.8 °F 93% 30.14 in 1.2 mi Calm Calm - N/A   Overcast
7:52 AM 36.0 °F 35.1 °F 97% 30.17 in 2.5 mi Calm Calm - N/A   Overcast
7:58 AM 37.4 °F 35.6 °F 93% 30.15 in 1.0 mi Calm Calm - N/A   Overcast
8:06 AM 37.4 °F 37.4 °F 100% 30.15 in 0.5 mi Calm Calm - N/A Fog Fog
8:21 AM 39.2 °F 37.4 °F 93% 30.15 in 1.5 mi Calm Calm - N/A   Overcast
8:34 AM 41.0 °F 39.2 °F 93% 30.15 in 3.0 mi Calm Calm - N/A   Overcast
8:52 AM 42.1 °F 39.9 °F 92% 30.18 in 10.0 mi Calm Calm - N/A   Scattered Clouds
9:52 AM 50.0 °F 44.1 °F 80% 30.16 in 10.0 mi Calm Calm - N/A   Clear
10:52 AM 60.1 °F 46.9 °F 62% 30.14 in 10.0 mi West 3.5 mph - N/A   Clear
11:52 AM 64.0 °F 48.0 °F 56% 30.12 in 10.0 mi Calm Calm - N/A   Clear
12:52 PM 66.9 °F 48.9 °F 52% 30.09 in 10.0 mi Calm Calm - N/A   Clear
1:52 PM 70.0 °F 50.0 °F 49% 30.06 in 10.0 mi Calm Calm - N/A   Clear
2:52 PM 72.0 °F 50.0 °F 46% 30.04 in 10.0 mi SW 3.5 mph - N/A   Clear
3:52 PM 71.1 °F 51.1 °F 49% 30.04 in 10.0 mi Variable 5.8 mph - N/A   Clear
4:52 PM 70.0 °F 50.0 °F 49% 30.04 in 10.0 mi SE 8.1 mph - N/A   Clear
5:52 PM 66.0 °F 48.9 °F 54% 30.04 in 10.0 mi SSE 8.1 mph - N/A   Clear
6:52 PM 60.1 °F 50.0 °F 69% 30.06 in 10.0 mi NNW 4.6 mph - N/A   Clear
7:52 PM 53.1 °F 48.0 °F 83% 30.07 in 10.0 mi Calm Calm - N/A   Clear
8:52 PM 51.1 °F 48.0 °F 89% 30.06 in 10.0 mi WNW 5.8 mph - N/A   Clear
9:52 PM 48.0 °F 45.0 °F 89% 30.07 in 10.0 mi Calm Calm - N/A   Clear
10:52 PM 46.0 °F 43.0 °F 89% 30.08 in 10.0 mi Calm Calm - N/A   Clear
11:52 PM 44.1 °F 42.1 °F 93% 30.07 in 10.0 mi Calm Calm - N/A   Clear